| time (UTC) | temp F | wind direction | speed MPH | gust MPH | rain 1hr in | rain 24hr in | rain mn in | humidity % | barometer mb |
| 20260507073007 | 47 | 0.0 | 0.0 | 0.00 | 0.00 | 0.00 | 39 | 1010.2 | |
| 20260507071507 | 48 | 98 | 0.0 | 0.0 | 0.00 | 0.00 | 0.00 | 38 | 1010.5 |
| 20260507070010 | 48 | 226 | 0.0 | 0.0 | 0.00 | 0.00 | 0.00 | 38 | 1010.6 |
| 20260507064504 | 48 | 135 | 0.0 | 1.0 | 0.00 | 0.00 | 0.00 | 38 | 1010.6 |
| 20260507063002 | 47 | 113 | 0.0 | 4.0 | 0.00 | 0.00 | 0.00 | 38 | 1010.8 |
| 20260507061600 | 47 | 126 | 0.0 | 0.0 | 0.00 | 0.00 | 0.00 | 41 | 1010.7 |
| 20260507060058 | 47 | 132 | 0.0 | 0.0 | 0.00 | 0.00 | 0.00 | 40 | 1010.4 |
| 20260507054557 | 46 | 250 | 0.0 | 0.0 | 0.00 | 0.00 | 0.00 | 43 | 1010.3 |
| 20260507053116 | 48 | 248 | 0.0 | 0.0 | 0.00 | 0.00 | 0.00 | 39 | 1010.2 |
| 20260507053106 | 48 | 357 | 0.0 | 0.0 | 0.00 | 0.00 | 0.00 | 39 | 1010.2 |
| 20260507051552 | 47 | 8 | 0.0 | 0.0 | 0.00 | 0.00 | 0.00 | 39 | 1010.3 |
| 20260507050049 | 46 | 164 | 0.0 | 0.0 | 0.00 | 0.00 | 0.00 | 44 | 1010.4 |
| 20260507044547 | 48 | 270 | 0.0 | 0.0 | 0.00 | 0.00 | 0.00 | 39 | 1010.4 |
| 20260507043043 | 49 | 75 | 0.0 | 0.0 | 0.00 | 0.00 | 0.00 | 39 | 1010.4 |
| 20260507041538 | 50 | 204 | 0.0 | 0.0 | 0.00 | 0.00 | 0.00 | 37 | 1010.5 |
| 20260507040041 | 50 | 259 | 0.0 | 0.0 | 0.00 | 0.00 | 0.00 | 36 | 1010.5 |
| 20260507034537 | 50 | 267 | 0.0 | 0.0 | 0.00 | 0.00 | 0.00 | 35 | 1010.5 |
| 20260507033032 | 51 | 184 | 0.0 | 0.0 | 0.00 | 0.00 | 0.00 | 35 | 1010.5 |
| 20260507031527 | 50 | 224 | 0.0 | 0.0 | 0.00 | 0.00 | 0.00 | 36 | 1010.5 |
| 20260507030027 | 51 | 100 | 0.0 | 0.0 | 0.00 | 0.00 | 0.00 | 35 | 1010.5 |
| 20260507024526 | 52 | 9 | 0.0 | 0.0 | 0.00 | 0.00 | 0.00 | 35 | 1010.3 |
| 20260507023025 | 52 | 237 | 0.0 | 0.0 | 0.00 | 0.00 | 0.00 | 35 | 1010.7 |
| 20260507021523 | 54 | 8 | 0.0 | 0.0 | 0.00 | 0.00 | 0.00 | 32 | 1010.5 |
| 20260507020026 | 56 | 229 | 0.0 | 0.0 | 0.00 | 0.00 | 0.00 | 30 | 1010.5 |
| 20260507014527 | 58 | 301 | 0.0 | 0.0 | 0.00 | 0.00 | 0.00 | 28 | 1010.7 |
| 20260507013038 | 60 | 183 | 0.0 | 0.0 | 0.00 | 0.00 | 0.00 | 24 | 1010.7 |
| 20260507011514 | 61 | 247 | 0.0 | 0.0 | 0.00 | 0.00 | 0.00 | 22 | 1010.8 |
| 20260507010022 | 61 | 224 | 0.0 | 0.0 | 0.00 | 0.00 | 0.00 | 23 | 1010.9 |
| 20260507004510 | 61 | 56 | 0.0 | 0.0 | 0.00 | 0.00 | 0.00 | 21 | 1011.1 |
| 20260507003007 | 61 | 272 | 0.0 | 1.0 | 0.00 | 0.00 | 0.00 | 21 | 1011.2 |
| 20260507001504 | 61 | 269 | 0.0 | 3.0 | 0.00 | 0.00 | 0.00 | 21 | 1011.3 |
| 20260507000003 | 62 | 91 | 0.0 | 5.0 | 0.00 | 0.00 | 0.00 | 20 | 1011.4 |
| 20260506234502 | 62 | 129 | 0.0 | 4.0 | 0.00 | 0.00 | 0.00 | 20 | 1011.3 |
| 20260506233001 | 62 | 0.0 | 5.0 | 0.00 | 0.00 | 0.00 | 21 | 1011.4 | |
| 20260506231602 | 63 | 107 | 1.0 | 9.0 | 0.00 | 0.00 | 0.00 | 20 | 1011.6 |
| 20260506230056 | 62 | 248 | 0.0 | 12.0 | 0.00 | 0.00 | 0.00 | 19 | 1011.8 |
| 20260506224554 | 62 | 178 | 0.0 | 16.0 | 0.00 | 0.00 | 0.00 | 18 | 1011.9 |
| 20260506223054 | 62 | 37 | 3.0 | 19.0 | 0.00 | 0.00 | 0.00 | 18 | 1012.2 |
| 20260506221521 | 63 | 23 | 0.0 | 14.0 | 0.00 | 0.00 | 0.00 | 18 | 1012.4 |
| 20260506220017 | 61 | 252 | 1.0 | 14.0 | 0.00 | 0.00 | 0.00 | 20 | 1012.8 |
| 20260506214512 | 61 | 53 | 0.0 | 8.0 | 0.00 | 0.00 | 0.00 | 19 | 1013.0 |
| 20260506213006 | 60 | 181 | 0.0 | 15.0 | 0.00 | 0.00 | 0.00 | 22 | 1013.3 |
| 20260506211503 | 59 | 304 | 2.0 | 11.0 | 0.00 | 0.00 | 0.00 | 21 | 1013.7 |
| 20260506210100 | 58 | 154 | 1.0 | 11.0 | 0.00 | 0.00 | 0.00 | 21 | 1014.1 |
| 20260506204528 | 58 | 306 | 0.0 | 11.0 | 0.00 | 0.00 | 0.00 | 22 | 1014.3 |
| 20260506203023 | 58 | 207 | 2.0 | 7.0 | 0.00 | 0.00 | 0.00 | 24 | 1014.6 |
| 20260506201519 | 57 | 139 | 2.0 | 16.0 | 0.00 | 0.00 | 0.00 | 22 | 1015.0 |
| 20260506200015 | 56 | 29 | 0.0 | 14.0 | 0.00 | 0.00 | 0.00 | 24 | 1015.2 |
| 20260506194511 | 56 | 132 | 0.0 | 7.0 | 0.00 | 0.00 | 0.00 | 23 | 1015.7 |
| 20260506193008 | 55 | 106 | 0.0 | 13.0 | 0.00 | 0.00 | 0.00 | 25 | 1016.3 |
| 20260506191503 | 55 | 79 | 1.0 | 14.0 | 0.00 | 0.00 | 0.00 | 26 | 1016.7 |
| 20260506184558 | 53 | 319 | 0.0 | 6.0 | 0.00 | 0.00 | 0.00 | 25 | 1017.3 |
| 20260506183057 | 52 | 314 | 0.0 | 10.0 | 0.00 | 0.00 | 0.00 | 27 | 1017.6 |
| 20260506181612 | 52 | 266 | 0.0 | 6.0 | 0.00 | 0.00 | 0.00 | 28 | 1018.0 |
| 20260506180044 | 52 | 94 | 0.0 | 7.0 | 0.00 | 0.00 | 0.00 | 29 | 1018.3 |
| 20260506174542 | 50 | 257 | 0.0 | 6.0 | 0.00 | 0.00 | 0.00 | 32 | 1018.7 |
| 20260506173053 | 50 | 118 | 0.0 | 9.0 | 0.00 | 0.00 | 0.00 | 30 | 1019.0 |
| 20260506171507 | 49 | 263 | 0.0 | 3.0 | 0.00 | 0.00 | 0.00 | 32 | 1019.2 |
| 20260506170004 | 49 | 27 | 2.0 | 7.0 | 0.00 | 0.00 | 0.00 | 31 | 1019.6 |
| 20260506164613 | 48 | 86 | 0.0 | 6.0 | 0.00 | 0.00 | 0.00 | 33 | 1019.8 |
| 20260506163025 | 48 | 1.0 | 10.0 | 0.00 | 0.00 | 0.00 | 33 | 1020.1 | |
| 20260506161522 | 47 | 256 | 0.0 | 3.0 | 0.00 | 0.00 | 0.00 | 36 | 1020.3 |
| 20260506160054 | 46 | 172 | 0.0 | 2.0 | 0.00 | 0.00 | 0.00 | 39 | 1020.5 |
| 20260506154544 | 45 | 6 | 0.0 | 7.0 | 0.00 | 0.00 | 0.00 | 40 | 1020.6 |
| 20260506153019 | 43 | 75 | 0.0 | 7.0 | 0.00 | 0.00 | 0.00 | 46 | 1020.7 |
| 20260506151508 | 40 | 229 | 0.0 | 4.0 | 0.00 | 0.00 | 0.00 | 51 | 1021.0 |
| 20260506150034 | 39 | 248 | 0.0 | 5.0 | 0.00 | 0.00 | 0.00 | 52 | 1021.2 |
| 20260506144528 | 37 | 244 | 0.0 | 2.0 | 0.00 | 0.00 | 0.00 | 55 | 1021.3 |
| 20260506143028 | 35 | 53 | 0.0 | 7.0 | 0.00 | 0.00 | 0.00 | 59 | 1021.5 |
| 20260506141523 | 34 | 319 | 0.0 | 5.0 | 0.00 | 0.00 | 0.00 | 61 | 1021.6 |
| 20260506140025 | 32 | 252 | 0.0 | 0.0 | 0.00 | 0.00 | 0.00 | 67 | 1021.7 |
| 20260506134522 | 30 | 240 | 0.0 | 0.0 | 0.00 | 0.00 | 0.00 | 71 | 1021.8 |
| 20260506133019 | 28 | 71 | 0.0 | 0.0 | 0.00 | 0.00 | 0.00 | 73 | 1021.9 |
| 20260506131529 | 28 | 146 | 0.0 | 0.0 | 0.00 | 0.00 | 0.00 | 72 | 1021.9 |
| 20260506130019 | 26 | 84 | 0.0 | 0.0 | 0.00 | 0.00 | 0.00 | 74 | 1021.9 |
| 20260506124518 | 23 | 190 | 0.0 | 0.0 | 0.00 | 0.00 | 0.00 | 80 | 1021.9 |
| 20260506123048 | 23 | 110 | 0.0 | 0.0 | 0.00 | 0.00 | 0.00 | 79 | 1021.8 |
| 20260506121547 | 22 | 264 | 0.0 | 0.0 | 0.00 | 0.00 | 0.00 | 81 | 1021.9 |
| 20260506120045 | 21 | 313 | 0.0 | 0.0 | 0.00 | 0.00 | 0.00 | 81 | 1021.8 |
| 20260506114545 | 22 | 41 | 0.0 | 0.0 | 0.00 | 0.00 | 0.00 | 82 | 1021.8 |
| 20260506113044 | 21 | 273 | 0.0 | 0.0 | 0.00 | 0.00 | 0.00 | 83 | 1021.8 |
| 20260506111542 | 21 | 229 | 0.0 | 0.0 | 0.00 | 0.00 | 0.00 | 83 | 1021.9 |
| 20260506110012 | 21 | 96 | 0.0 | 0.0 | 0.00 | 0.00 | 0.00 | 83 | 1021.9 |
| 20260506104508 | 22 | 154 | 0.0 | 0.0 | 0.00 | 0.00 | 0.00 | 81 | 1022.0 |
| 20260506103009 | 22 | 116 | 0.0 | 0.0 | 0.00 | 0.00 | 0.00 | 81 | 1021.9 |
| 20260506101505 | 22 | 316 | 0.0 | 0.0 | 0.00 | 0.00 | 0.00 | 80 | 1022.0 |
| 20260506100003 | 23 | 37 | 0.0 | 0.0 | 0.00 | 0.00 | 0.00 | 78 | 1022.0 |
| 20260506094504 | 24 | 124 | 0.0 | 0.0 | 0.00 | 0.00 | 0.00 | 76 | 1022.0 |
| 20260506093100 | 25 | 262 | 0.0 | 0.0 | 0.00 | 0.00 | 0.00 | 74 | 1022.1 |
| 20260506091601 | 27 | 46 | 0.0 | 0.0 | 0.00 | 0.00 | 0.00 | 74 | 1022.0 |
| 20260506084605 | 23 | 165 | 0.0 | 0.0 | 0.00 | 0.00 | 0.00 | 82 | 1022.0 |
| 20260506083052 | 24 | 99 | 0.0 | 0.0 | 0.00 | 0.00 | 0.00 | 80 | 1022.0 |
| 20260506081551 | 24 | 72 | 0.0 | 0.0 | 0.00 | 0.00 | 0.00 | 77 | 1022.1 |